CW2057 Weather Reports


Display with metric or nautical units.
time (UTC)temp
F
wind
direction
speed
MPH
gust
MPH
rain 1hr
in
rain 24hr
in
rain mn
in
humidity
%
barometer
mb
20200925033023 60 219 0.0 0.0 0.00 0.00 0.00 92 1017.5
20200925031527 60 219 0.0 0.0 0.00 0.00 0.00 92 1017.6
20200925030027 61 219 0.0 0.0 0.00 0.00 0.00 92 1017.5
20200925024529 61 219 0.0 0.0 0.00 0.00 0.00 92 1017.4
20200925023034 61 219 0.0 0.0 0.00 0.00 0.00 91 1017.4
20200925021536 61 219 0.0 0.0 0.00 0.00 0.00 91 1017.3
20200925020038 62 219 0.0 0.0 0.00 0.00 0.00 90 1017.1
20200925014539 62 219 0.0 0.0 0.00 0.00 0.00 90 1017.0
20200925013025 62 219 0.0 0.0 0.00 0.00 0.00 89 1017.1
20200925011523 63 219 0.0 0.0 0.00 0.00 0.00 87 1017.2
20200925010027 63 219 0.0 0.0 0.00 0.00 0.00 87 1017.2
20200925004530 64 219 0.0 0.0 0.00 0.00 0.00 85 1017.2
20200925003034 64 219 0.0 0.0 0.00 0.00 0.00 85 1017.2
20200925001536 65 219 0.0 0.0 0.00 0.00 0.00 85 1017.2
20200925000040 66 219 0.0 0.0 0.00 0.00 0.00 83 1016.9
20200924234524 67 219 0.0 0.0 0.00 0.00 0.00 82 1016.8
20200924233030 68 219 0.0 0.0 0.00 0.00 0.00 81 1016.6
20200924231524 68 219 0.0 0.0 0.00 0.00 0.00 79 1016.4
20200924230030 69 219 0.0 0.0 0.00 0.00 0.00 79 1016.4
20200924224530 70 219 0.0 0.0 0.00 0.00 0.00 78 1016.4
20200924223037 71 219 0.0 0.0 0.00 0.00 0.00 76 1016.3
20200924221606 72 219 0.0 0.0 0.00 0.00 0.00 74 1016.3
20200924220028 72 219 0.0 0.0 0.00 0.00 0.00 73 1016.2
20200924214523 73 219 0.0 0.0 0.00 0.00 0.00 71 1016.3
20200924213030 73 217 0.0 0.0 0.00 0.00 0.00 69 1016.3
20200924211529 74 212 0.0 0.0 0.00 0.00 0.00 67 1016.1
20200924210033 74 209 0.0 0.0 0.00 0.00 0.00 67 1015.9
20200924204535 74 204 0.0 0.0 0.00 0.00 0.00 70 1015.8
20200924203035 74 204 0.0 0.0 0.00 0.00 0.00 69 1016.0
20200924201529 73 204 0.0 0.0 0.00 0.00 0.00 68 1016.0
20200924200036 74 204 0.0 0.0 0.00 0.00 0.00 65 1016.1
20200924194535 74 188 0.0 0.0 0.00 0.00 0.00 64 1016.2
20200924193041 75 190 0.0 0.0 0.00 0.00 0.00 64 1016.2
20200924191539 75 259 0.0 2.0 0.00 0.00 0.00 69 1015.9
20200924190033 74 259 1.0 3.0 0.00 0.00 0.00 67 1016.1
20200924184526 74 264 0.0 0.0 0.00 0.00 0.00 68 1015.9
20200924183028 73 264 0.0 0.0 0.00 0.00 0.00 69 1015.7
20200924181528 73 264 0.0 0.0 0.00 0.00 0.00 69 1016.3
20200924180036 72 264 0.0 0.0 0.00 0.00 0.00 69 1016.5
20200924174534 72 264 0.0 0.0 0.00 0.00 0.00 71 1016.6
20200924173037 72 264 0.0 0.0 0.00 0.00 0.00 74 1016.8
20200924171540 71 264 0.0 0.0 0.00 0.00 0.00 72 1016.8
20200924170025 71 264 0.0 0.0 0.00 0.00 0.00 74 1016.9
20200924164524 70 264 0.0 0.0 0.00 0.00 0.00 72 1016.7
20200924163031 70 264 0.0 0.0 0.00 0.00 0.00 72 1016.8
20200924161525 70 264 0.0 0.0 0.00 0.00 0.00 76 1016.9
20200924160034 70 264 0.0 0.0 0.00 0.00 0.00 74 1016.9
20200924154532 70 264 0.0 0.0 0.00 0.00 0.00 72 1017.0
20200924153039 70 264 0.0 0.0 0.00 0.00 0.00 72 1017.1
20200924151539 69 264 0.0 0.0 0.00 0.00 0.00 71 1016.9
20200924150041 69 264 0.0 0.0 0.00 0.00 0.00 74 1017.1
20200924144521 68 264 0.0 0.0 0.00 0.00 0.00 74 1017.1
20200924143028 67 264 0.0 0.0 0.00 0.00 0.00 75 1017.1
20200924141528 66 263 0.0 0.0 0.00 0.00 0.00 76 1017.0
20200924140035 65 260 0.0 0.0 0.00 0.00 0.00 78 1017.1
20200924134536 64 260 0.0 0.0 0.00 0.00 0.00 78 1016.8
20200924133042 64 260 0.0 2.0 0.00 0.00 0.00 79 1016.7
20200924131543 63 259 0.0 2.0 0.00 0.00 0.00 79 1016.4
20200924130023 63 259 0.0 0.0 0.00 0.00 0.00 80 1016.5
20200924124524 62 259 0.0 0.0 0.00 0.00 0.00 80 1016.3
20200924123037 62 258 0.0 0.0 0.00 0.00 0.00 81 1016.3
20200924121533 61 258 0.0 2.0 0.00 0.00 0.00 82 1016.3
20200924120030 61 257 0.0 1.0 0.00 0.00 0.00 83 1016.3
20200924114532 60 255 0.0 0.0 0.00 0.00 0.00 82 1016.2
20200924113032 60 255 0.0 1.0 0.00 0.00 0.00 83 1015.9
20200924111533 60 255 0.0 2.0 0.00 0.00 0.00 82 1015.8
20200924110041 60 250 0.0 0.0 0.00 0.00 0.00 83 1015.7
20200924104539 60 249 0.0 2.0 0.00 0.00 0.00 83 1015.8
20200924103024 60 249 0.0 3.0 0.00 0.00 0.00 84 1015.8
20200924101526 59 240 0.0 1.0 0.00 0.00 0.00 84 1015.6
20200924100036 59 240 0.0 0.0 0.00 0.00 0.00 84 1015.4
20200924094525 60 240 0.0 0.0 0.00 0.00 0.00 83 1015.2
20200924093029 60 240 0.0 0.0 0.00 0.00 0.00 83 1015.2
20200924091532 60 240 0.0 0.0 0.00 0.00 0.00 82 1015.2
20200924090036 60 240 0.0 0.0 0.00 0.00 0.00 82 1015.1
20200924084539 60 240 0.0 0.0 0.00 0.00 0.00 82 1015.0
20200924083023 60 240 0.0 0.0 0.00 0.00 0.00 83 1014.9
20200924081528 60 240 0.0 0.0 0.00 0.00 0.00 83 1014.9
20200924080027 59 239 0.0 0.0 0.00 0.00 0.00 84 1014.9
20200924074531 59 239 0.0 0.0 0.00 0.00 0.00 84 1014.9
20200924073034 59 239 0.0 0.0 0.00 0.00 0.00 85 1014.9
20200924071538 58 239 0.0 0.0 0.00 0.00 0.00 86 1015.0
20200924070044 58 237 0.0 0.0 0.00 0.00 0.00 86 1015.0
20200924064523 58 237 0.0 0.0 0.00 0.00 0.00 86 1015.1
20200924063024 59 237 0.0 0.0 0.00 0.00 0.00 85 1015.2
20200924061521 59 237 0.0 0.0 0.00 0.00 0.00 85 1015.1
20200924060032 59 237 0.0 0.0 0.00 0.00 0.00 84 1015.1
20200924054529 59 237 0.0 0.0 0.00 0.00 0.00 83 1015.1
20200924053032 60 237 0.0 0.0 0.00 0.00 0.00 82 1015.2
20200924051532 60 237 0.0 0.0 0.00 0.00 0.00 82 1015.1
20200924050039 60 237 0.0 0.0 0.00 0.00 0.00 81 1015.1
20200924044535 60 237 0.0 0.0 0.00 0.00 0.00 82 1015.3
20200924043040 60 237 0.0 0.0 0.00 0.00 0.00 81 1015.2
20200924041526 60 237 0.0 0.0 0.00 0.00 0.00 82 1015.2
20200924040030 59 223 0.0 0.0 0.00 0.00 0.00 83 1015.2
20200924034523 60 222 0.0 0.0 0.00 0.00 0.00 83 1015.4